EUTELSAT 12 WEST B

Last updated on Oct. 16, 2020, 5:49 a.m. UTC

1 26927U 01042A   20289.51851406 -.00000117  00000-0  00000+0 0  9993
2 26927   1.3232  92.3746 0004875 171.0601 246.5491  0.98526288 69767
UTC
Height (km)
Latitude
Longitude
Inclination
Orbital Period
UTC large
Height (km)
Speed (km/s)
/
Latitude / Longitude
Inclination (degrees)
Orbital Period (minutes)
Azimuth
Elevation
Range (km)
Doppler Factor
iOS Compass Heading
iOS Angle

Next 30 passes for location: Hong Kong

Rise time Rise Azimuth (degrees) Set time Set Azimuth (degrees) Duration Max altitude (degrees)

No matching passes for this satellites